Radiation Dose at Monitoring Post of Fukushima Daini Nuclear Power Station
Date,Time,MP-1(microSv/h),MP-2(microSv/h),MP-3(microSv/h),MP-4(microSv/h),MP-5(microSv/h),MP-6(microSv/h),MP-7(microSv/h),Wind Direction,Wind Velocity(m/s),Rain
2019/10/30,00:00,0.179,0.160,0.266,0.251,0.257,0.135,0.085,-,CALM,No
2019/10/30,00:10,0.180,0.158,0.266,0.249,0.258,0.136,0.085,northwest,1.7,No
2019/10/30,00:20,0.179,0.158,0.267,0.251,0.258,0.136,0.085,northwest,2.7,No
2019/10/30,00:30,0.178,0.158,0.266,0.251,0.257,0.136,0.084,northwest,2.9,No
2019/10/30,00:40,0.178,0.158,0.266,0.249,0.257,0.136,0.084,northwest,1.7,No
2019/10/30,00:50,0.178,0.157,0.267,0.249,0.257,0.136,0.084,northwest,0.6,No
2019/10/30,01:00,0.179,0.159,0.267,0.248,0.259,0.136,0.085,northwest,2.0,No
2019/10/30,01:10,0.178,0.158,0.266,0.248,0.257,0.135,0.084,north-northwest,1.6,No
2019/10/30,01:20,0.178,0.158,0.266,0.249,0.257,0.137,0.084,north-northwest,3.1,No
2019/10/30,01:30,0.178,0.158,0.265,0.249,0.257,0.135,0.084,north-northwest,3.5,No
2019/10/30,01:40,0.178,0.158,0.265,0.248,0.257,0.136,0.084,north-northwest,2.7,No
2019/10/30,01:50,0.179,0.158,0.267,0.251,0.257,0.136,0.085,northwest,3.6,No
2019/10/30,02:00,0.178,0.159,0.264,0.248,0.257,0.136,0.085,west-northwest,3.0,No
2019/10/30,02:10,0.178,0.157,0.266,0.249,0.256,0.136,0.084,west-northwest,3.6,No
2019/10/30,02:20,0.179,0.158,0.267,0.249,0.257,0.135,0.083,west,2.8,No
2019/10/30,02:30,0.179,0.158,0.265,0.248,0.256,0.136,0.084,west-northwest,2.4,No
2019/10/30,02:40,0.178,0.158,0.266,0.250,0.255,0.136,0.083,west-southwest,2.1,No
2019/10/30,02:50,0.179,0.159,0.267,0.248,0.256,0.136,0.084,west,0.8,No
2019/10/30,03:00,0.178,0.159,0.265,0.249,0.256,0.136,0.084,-,CALM,No
2019/10/30,03:10,0.178,0.158,0.267,0.249,0.256,0.135,0.084,southwest,1.1,No
2019/10/30,03:20,0.179,0.158,0.266,0.248,0.256,0.135,0.083,west-southwest,1.0,No
2019/10/30,03:30,0.178,0.159,0.265,0.249,0.256,0.135,0.083,west-southwest,2.7,No
2019/10/30,03:40,0.178,0.159,0.267,0.249,0.256,0.136,0.084,west,1.8,No
2019/10/30,03:50,0.178,0.158,0.266,0.248,0.257,0.135,0.084,west-northwest,2.3,No
2019/10/30,04:00,0.178,0.159,0.265,0.248,0.256,0.136,0.084,west-northwest,1.3,No
2019/10/30,04:10,0.179,0.159,0.268,0.249,0.258,0.135,0.084,west-northwest,1.0,No
2019/10/30,04:20,0.178,0.158,0.266,0.248,0.256,0.136,0.083,west,1.0,No
2019/10/30,04:30,0.179,0.157,0.265,0.250,0.258,0.137,0.084,west,2.6,No
2019/10/30,04:40,0.179,0.158,0.266,0.249,0.256,0.135,0.084,west,2.7,No
2019/10/30,04:50,0.178,0.159,0.265,0.249,0.255,0.135,0.084,west,2.3,No
2019/10/30,05:00,0.179,0.159,0.266,0.249,0.257,0.136,0.084,west-northwest,2.4,No
2019/10/30,05:10,0.178,0.159,0.266,0.250,0.256,0.136,0.085,west,2.2,No
2019/10/30,05:20,0.178,0.157,0.265,0.249,0.257,0.135,0.084,west,2.6,No
2019/10/30,05:30,0.179,0.158,0.266,0.250,0.256,0.136,0.084,west,4.2,No
2019/10/30,05:40,0.179,0.158,0.266,0.250,0.257,0.135,0.084,west,5.7,No
2019/10/30,05:50,0.178,0.159,0.265,0.249,0.257,0.136,0.084,west,5.1,No
2019/10/30,06:00,0.179,0.159,0.266,0.251,0.255,0.135,0.084,west,4.9,No
2019/10/30,06:10,0.178,0.158,0.266,0.249,0.256,0.135,0.084,west,5.0,No
2019/10/30,06:20,0.179,0.158,0.266,0.250,0.257,0.136,0.083,west-northwest,3.9,No
2019/10/30,06:30,0.178,0.157,0.267,0.249,0.256,0.136,0.084,west,4.0,No
2019/10/30,06:40,0.178,0.158,0.267,0.249,0.257,0.136,0.084,west,4.1,No
2019/10/30,06:50,0.178,0.157,0.264,0.251,0.258,0.136,0.084,west,4.5,No
2019/10/30,07:00,0.178,0.158,0.267,0.249,0.255,0.136,0.083,west,3.6,No
2019/10/30,07:10,0.179,0.159,0.265,0.249,0.258,0.135,0.084,west,3.8,No
2019/10/30,07:20,0.178,0.159,0.265,0.249,0.255,0.136,0.084,west,6.2,No
2019/10/30,07:30,0.178,0.158,0.267,0.249,0.256,0.135,0.084,west-northwest,4.9,No
2019/10/30,07:40,0.179,0.158,0.267,0.249,0.256,0.136,0.084,west,2.9,No
2019/10/30,07:50,0.178,0.159,0.266,0.247,0.258,0.134,0.083,west,4.4,No
2019/10/30,08:00,0.179,0.158,0.265,0.249,0.257,0.134,0.083,west-southwest,5.1,No
2019/10/30,08:10,0.178,0.158,0.265,0.248,0.256,0.135,0.084,west-southwest,4.6,No
2019/10/30,08:20,0.179,0.158,0.265,0.248,0.256,0.135,0.084,west,6.7,No
2019/10/30,08:30,0.179,0.158,0.266,0.249,0.256,0.136,0.084,west,5.8,No
2019/10/30,08:40,0.178,0.157,0.267,0.249,0.257,0.135,0.084,west,7.6,No
2019/10/30,08:50,0.179,0.159,0.265,0.249,0.257,0.135,0.084,west-northwest,6.1,No
2019/10/30,09:00,0.178,0.158,0.267,0.248,0.257,0.135,0.083,west,5.6,No
2019/10/30,09:10,0.178,0.158,0.265,0.251,0.256,0.135,0.083,west-northwest,3.4,No
2019/10/30,09:20,0.179,0.157,0.266,0.249,0.255,0.135,0.084,west,3.4,No
2019/10/30,09:30,0.177,0.158,0.265,0.248,0.259,0.136,0.084,west-northwest,4.5,No
2019/10/30,09:40,0.179,0.159,0.267,0.249,0.256,0.136,0.083,west-southwest,2.2,No
2019/10/30,09:50,0.178,0.158,0.266,0.249,0.254,0.136,0.084,west-northwest,2.6,No
2019/10/30,10:00,0.177,0.158,0.267,0.247,0.257,0.135,0.084,west-northwest,2.9,No
2019/10/30,10:10,0.178,0.159,0.266,0.248,0.256,0.136,0.085,west,3.1,No
2019/10/30,10:20,0.179,0.158,0.268,0.252,0.254,0.135,0.085,west,6.8,No
2019/10/30,10:30,0.178,0.159,0.266,0.249,0.256,0.136,0.084,west-northwest,3.8,No
2019/10/30,10:40,0.180,0.159,0.268,0.249,0.259,0.136,0.083,west,5.0,No
2019/10/30,10:50,0.181,0.158,0.265,0.252,0.256,0.137,0.084,west,5.6,No
2019/10/30,11:00,0.180,0.159,0.268,0.250,0.258,0.136,0.086,west-southwest,3.9,No
2019/10/30,11:10,0.178,0.159,0.265,0.249,0.260,0.136,0.084,west,4.3,No
2019/10/30,11:20,0.179,0.158,0.268,0.248,0.256,0.137,0.083,west,5.6,No
2019/10/30,11:30,0.180,0.158,0.267,0.249,0.255,0.137,0.085,west-southwest,6.8,No
2019/10/30,11:40,0.180,0.159,0.268,0.250,0.255,0.136,0.084,west,5.1,No
2019/10/30,11:50,0.179,0.159,0.266,0.251,0.257,0.138,0.085,west,5.2,No
2019/10/30,12:00,0.178,0.159,0.268,0.252,0.259,0.137,0.084,west,9.0,No
2019/10/30,12:10,0.178,0.158,0.267,0.250,0.258,0.136,0.084,west,8.4,No
2019/10/30,12:20,0.178,0.158,0.266,0.249,0.256,0.137,0.085,west,4.2,No
2019/10/30,12:30,0.181,0.160,0.268,0.249,0.255,0.137,0.084,west,5.6,No
2019/10/30,12:40,0.180,0.158,0.267,0.249,0.258,0.136,0.084,west,4.0,No
2019/10/30,12:50,0.178,0.159,0.267,0.253,0.260,0.138,0.085,west,6.0,No
2019/10/30,13:00,0.178,0.158,0.268,0.254,0.257,0.137,0.085,west,5.9,No
2019/10/30,13:10,0.181,0.160,0.266,0.250,0.257,0.137,0.085,west,6.4,No
2019/10/30,13:20,0.180,0.159,0.266,0.250,0.255,0.138,0.085,west-northwest,6.4,No
2019/10/30,13:30,0.180,0.159,0.269,0.249,0.261,0.138,0.085,west-northwest,5.2,No
2019/10/30,13:40,0.179,0.159,0.267,0.248,0.259,0.137,0.085,west-northwest,8.1,No
2019/10/30,13:50,0.180,0.161,0.266,0.251,0.257,0.137,0.084,west,6.8,No
2019/10/30,14:00,0.182,0.159,0.268,0.252,0.257,0.138,0.085,west,7.6,No
2019/10/30,14:10,0.180,0.159,0.267,0.251,0.260,0.137,0.085,west,6.5,No
2019/10/30,14:20,0.182,0.160,0.270,0.253,0.259,0.136,0.084,west,5.3,No
2019/10/30,14:30,0.181,0.159,0.267,0.254,0.259,0.137,0.085,west-northwest,4.2,No
2019/10/30,14:40,0.180,0.161,0.269,0.253,0.262,0.137,0.085,west,7.2,No
2019/10/30,14:50,0.182,0.160,0.269,0.255,0.257,0.137,0.085,west,8.4,No
2019/10/30,15:00,0.180,0.160,0.269,0.251,0.260,0.138,0.085,west-southwest,6.2,No
2019/10/30,15:10,0.182,0.159,0.270,0.254,0.258,0.138,0.084,west-southwest,3.4,No
2019/10/30,15:20,0.181,0.160,0.270,0.252,0.259,0.137,0.085,west,3.3,No
2019/10/30,15:30,0.181,0.160,0.269,0.252,0.261,0.137,0.084,-,CALM,No
2019/10/30,15:40,0.181,0.160,0.268,0.253,0.258,0.136,0.085,north-northwest,1.0,No
2019/10/30,15:50,0.181,0.160,0.271,0.252,0.260,0.138,0.084,north-northeast,1.2,No
2019/10/30,16:00,0.181,0.160,0.268,0.254,0.258,0.136,0.085,north,0.8,No
2019/10/30,16:10,0.180,0.161,0.270,0.252,0.260,0.137,0.085,-,CALM,No
2019/10/30,16:20,0.181,0.160,0.269,0.254,0.260,0.137,0.085,north-northwest,1.4,No
2019/10/30,16:30,0.181,0.160,0.269,0.252,0.259,0.137,0.085,northwest,3.3,No
2019/10/30,16:40,0.182,0.159,0.269,0.253,0.259,0.137,0.085,north,2.3,No
2019/10/30,16:50,0.180,0.159,0.270,0.252,0.259,0.138,0.084,north,4.0,No
2019/10/30,17:00,0.183,0.161,0.268,0.253,0.258,0.136,0.085,north,3.2,No
2019/10/30,17:10,0.180,0.160,0.269,0.252,0.260,0.138,0.086,north-northeast,2.7,No
2019/10/30,17:20,0.182,0.160,0.269,0.254,0.260,0.136,0.085,north-northeast,2.5,No
2019/10/30,17:30,0.181,0.160,0.270,0.253,0.260,0.138,0.085,north,2.1,No
2019/10/30,17:40,0.182,0.161,0.269,0.253,0.258,0.137,0.085,north,2.3,No
2019/10/30,17:50,0.180,0.160,0.269,0.253,0.261,0.138,0.085,north-northeast,1.9,No
2019/10/30,18:00,0.182,0.160,0.271,0.251,0.257,0.137,0.085,north,1.5,No
2019/10/30,18:10,0.181,0.160,0.268,0.253,0.260,0.137,0.085,northeast,2.2,No
2019/10/30,18:20,0.182,0.161,0.270,0.252,0.259,0.138,0.084,north-northeast,1.5,No
2019/10/30,18:30,0.181,0.160,0.269,0.253,0.260,0.138,0.085,northeast,1.5,No
2019/10/30,18:40,0.180,0.161,0.270,0.252,0.259,0.138,0.084,northeast,1.3,No
2019/10/30,18:50,0.182,0.160,0.269,0.253,0.261,0.137,0.086,north-northeast,1.2,No
2019/10/30,19:00,0.181,0.161,0.270,0.254,0.258,0.138,0.085,east,1.1,No
2019/10/30,19:10,0.182,0.161,0.270,0.253,0.259,0.138,0.085,west-southwest,1.0,No
2019/10/30,19:20,0.181,0.161,0.268,0.254,0.259,0.137,0.085,west-northwest,0.6,No
2019/10/30,19:30,0.182,0.160,0.271,0.253,0.259,0.138,0.086,west,1.0,No
2019/10/30,19:40,0.181,0.160,0.269,0.253,0.260,0.137,0.085,northwest,1.8,No
2019/10/30,19:50,0.182,0.162,0.269,0.252,0.259,0.138,0.085,northwest,1.5,No
2019/10/30,20:00,0.182,0.160,0.270,0.253,0.260,0.138,0.085,north-northwest,0.9,No
2019/10/30,20:10,0.181,0.161,0.270,0.254,0.259,0.138,0.085,northwest,1.0,No
2019/10/30,20:20,0.182,0.161,0.271,0.253,0.261,0.138,0.085,northwest,0.8,No
2019/10/30,20:30,0.181,0.160,0.269,0.253,0.260,0.138,0.085,northwest,0.9,No
2019/10/30,20:40,0.182,0.161,0.270,0.253,0.259,0.139,0.085,northwest,2.0,No
2019/10/30,20:50,0.181,0.160,0.271,0.253,0.260,0.137,0.085,northwest,2.2,No
2019/10/30,21:00,0.182,0.161,0.269,0.253,0.258,0.138,0.085,north-northwest,3.3,No
2019/10/30,21:10,0.182,0.162,0.271,0.254,0.259,0.137,0.086,north-northwest,3.4,No
2019/10/30,21:20,0.182,0.160,0.269,0.254,0.258,0.138,0.085,north-northwest,4.2,No
2019/10/30,21:30,0.183,0.161,0.269,0.253,0.260,0.138,0.086,north,4.4,No
2019/10/30,21:40,0.182,0.161,0.270,0.253,0.259,0.139,0.085,north-northwest,3.4,No
2019/10/30,21:50,0.182,0.160,0.270,0.255,0.259,0.139,0.086,north,3.2,No
2019/10/30,22:00,0.183,0.161,0.271,0.253,0.262,0.138,0.086,north,2.8,No
2019/10/30,22:10,0.183,0.160,0.269,0.254,0.259,0.138,0.086,north,3.0,No
2019/10/30,22:20,0.182,0.161,0.270,0.254,0.261,0.138,0.085,north-northeast,3.0,No
2019/10/30,22:30,0.181,0.160,0.271,0.254,0.261,0.139,0.086,north-northeast,2.7,No
2019/10/30,22:40,0.183,0.160,0.268,0.254,0.259,0.138,0.085,north-northeast,2.5,No
2019/10/30,22:50,0.183,0.160,0.269,0.255,0.261,0.139,0.086,north-northeast,3.1,No
2019/10/30,23:00,0.180,0.160,0.270,0.255,0.260,0.138,0.086,north-northeast,3.2,No
2019/10/30,23:10,0.182,0.160,0.270,0.255,0.261,0.138,0.086,north-northeast,2.0,No
2019/10/30,23:20,0.181,0.161,0.270,0.254,0.260,0.138,0.085,north-northeast,1.8,No
2019/10/30,23:30,0.182,0.161,0.269,0.254,0.259,0.138,0.085,east-northeast,1.8,No
2019/10/30,23:40,0.183,0.161,0.269,0.254,0.261,0.139,0.086,east-northeast,1.4,No
2019/10/30,23:50,0.181,0.161,0.270,0.254,0.261,0.138,0.086,east-northeast,1.8,No
